| time (UTC) | temp C | wind direction | speed KPH | gust KPH | rain 1hr cm | rain 24hr cm | rain mn cm | humidity % | barometer mb |
| 20260505171542 | 14 | 131 | 1.6 | 4.8 | 0.00 | 0.00 | 0.00 | 67 | 1015.2 |
| 20260505170614 | 14 | 119 | 1.6 | 4.8 | 0.00 | 0.00 | 0.00 | 67 | 1015.2 |
| 20260505165604 | 14 | 132 | 1.6 | 4.8 | 0.00 | 0.00 | 0.00 | 67 | 1015.6 |
| 20260505164443 | 14 | 135 | 1.6 | 8.0 | 0.00 | 0.00 | 0.00 | 66 | 1015.2 |
| 20260505163359 | 14 | 103 | 4.8 | 4.8 | 0.00 | 0.00 | 0.00 | 67 | 1015.4 |
| 20260505162412 | 14 | 161 | 1.6 | 4.8 | 0.00 | 0.00 | 0.00 | 67 | 1015.3 |
| 20260505161401 | 14 | 112 | 1.6 | 4.8 | 0.00 | 0.00 | 0.00 | 66 | 1015.3 |
| 20260505160413 | 14 | 114 | 4.8 | 9.7 | 0.00 | 0.00 | 0.00 | 66 | 1015.2 |
| 20260505153342 | 15 | 212 | 4.8 | 4.8 | 0.00 | 0.00 | 0.00 | 64 | 1015.4 |
| 20260505152259 | 15 | 137 | 1.6 | 4.8 | 0.00 | 0.00 | 0.00 | 65 | 1015.4 |
| 20260505151418 | 15 | 133 | 1.6 | 3.2 | 0.00 | 0.00 | 0.00 | 63 | 1015.4 |
| 20260505150238 | 15 | 116 | 3.2 | 8.0 | 0.00 | 0.00 | 0.00 | 65 | 1015.3 |
| 20260505140213 | 15 | 131 | 0.0 | 1.6 | 0.00 | 0.00 | 0.00 | 63 | 1015.7 |
| 20260505130116 | 15 | 181 | 1.6 | 3.2 | 0.00 | 0.00 | 0.00 | 64 | 1015.9 |
| 20260505124118 | 15 | 187 | 1.6 | 3.2 | 0.00 | 0.00 | 0.00 | 66 | 1015.6 |
| 20260505123045 | 15 | 167 | 0.0 | 3.2 | 0.00 | 0.00 | 0.00 | 64 | 1015.8 |
| 20260505121946 | 15 | 147 | 1.6 | 3.2 | 0.00 | 0.00 | 0.00 | 66 | 1016.0 |
| 20260505121019 | 15 | 147 | 3.2 | 4.8 | 0.00 | 0.00 | 0.00 | 64 | 1015.8 |
| 20260505120027 | 16 | 140 | 1.6 | 3.2 | 0.00 | 0.00 | 0.00 | 63 | 1015.9 |
| 20260505115020 | 16 | 0.0 | 1.6 | 0.00 | 0.00 | 0.00 | 64 | 1015.8 | |
| 20260505113948 | 15 | 134 | 1.6 | 4.8 | 0.00 | 0.00 | 0.00 | 69 | 1015.9 |
| 20260505112925 | 14 | 195 | 1.6 | 8.0 | 0.00 | 0.00 | 0.00 | 68 | 1016.0 |
| 20260505111821 | 15 | 128 | 1.6 | 3.2 | 0.00 | 0.00 | 0.00 | 68 | 1016.3 |
| 20260505110905 | 15 | 194 | 3.2 | 4.8 | 0.00 | 0.00 | 0.00 | 67 | 1016.1 |
| 20260505101843 | 13 | 192 | 4.8 | 8.0 | 0.00 | 0.00 | 0.00 | 73 | 1016.7 |
| 20260505100907 | 13 | 168 | 1.6 | 3.2 | 0.00 | 0.00 | 0.00 | 74 | 1016.5 |
| 20260505095824 | 13 | 0.0 | 1.6 | 0.00 | 0.00 | 0.00 | 77 | 1016.6 | |
| 20260505094909 | 13 | 154 | 1.6 | 3.2 | 0.00 | 0.00 | 0.00 | 76 | 1016.6 |
| 20260505093825 | 12 | 186 | 1.6 | 1.6 | 0.00 | 0.00 | 0.00 | 78 | 1016.7 |
| 20260505092929 | 12 | 170 | 0.0 | 3.2 | 0.00 | 0.00 | 0.00 | 78 | 1016.5 |
| 20260505091847 | 12 | 100 | 1.6 | 1.6 | 0.00 | 0.00 | 0.00 | 79 | 1016.6 |
| 20260505090910 | 12 | 170 | 1.6 | 3.2 | 0.00 | 0.00 | 0.00 | 78 | 1016.7 |
| 20260505085827 | 13 | 172 | 0.0 | 3.2 | 0.00 | 0.00 | 0.00 | 76 | 1016.7 |
| 20260505084910 | 12 | 131 | 0.0 | 1.6 | 0.00 | 0.00 | 0.00 | 78 | 1016.6 |
| 20260505083828 | 12 | 157 | 3.2 | 3.2 | 0.00 | 0.00 | 0.00 | 79 | 1016.7 |
| 20260505082911 | 11 | 141 | 3.2 | 8.0 | 0.00 | 0.00 | 0.00 | 81 | 1016.9 |
| 20260505081828 | 11 | 124 | 3.2 | 3.2 | 0.00 | 0.00 | 0.00 | 80 | 1017.0 |
| 20260505080756 | 11 | 134 | 1.6 | 9.7 | 0.00 | 0.00 | 0.00 | 80 | 1016.9 |
| 20260505075728 | 11 | 139 | 1.6 | 4.8 | 0.00 | 0.00 | 0.00 | 82 | 1017.0 |
| 20260505074813 | 10 | 150 | 1.6 | 3.2 | 0.00 | 0.00 | 0.00 | 84 | 1016.9 |
| 20260505073730 | 10 | 0.0 | 1.6 | 0.00 | 0.00 | 0.00 | 87 | 1016.8 | |
| 20260505072813 | 9 | 139 | 0.0 | 3.2 | 0.00 | 0.00 | 0.00 | 88 | 1016.9 |
| 20260505071730 | 9 | 136 | 1.6 | 1.6 | 0.00 | 0.00 | 0.00 | 89 | 1016.9 |
| 20260505070814 | 8 | 133 | 1.6 | 3.2 | 0.00 | 0.00 | 0.00 | 90 | 1016.9 |
| 20260505065731 | 8 | 119 | 0.0 | 3.2 | 0.00 | 0.00 | 0.00 | 93 | 1016.9 |
| 20260505064816 | 8 | 0.0 | 1.6 | 0.00 | 0.00 | 0.00 | 94 | 1017.0 | |
| 20260505063732 | 8 | 142 | 0.0 | 1.6 | 0.00 | 0.00 | 0.00 | 96 | 1017.0 |
| 20260505062816 | 8 | 113 | 3.2 | 3.2 | 0.00 | 0.00 | 0.00 | 97 | 1017.0 |
| 20260505061733 | 8 | 0.0 | 1.6 | 0.00 | 0.00 | 0.00 | 98 | 1017.1 | |
| 20260505060818 | 8 | 0.0 | 0.0 | 0.00 | 0.00 | 0.00 | 98 | 1017.0 | |
| 20260505055734 | 7 | 0.0 | 0.0 | 0.00 | 0.00 | 0.00 | 98 | 1017.2 | |
| 20260505054703 | 7 | 0.0 | 0.0 | 0.00 | 0.00 | 0.00 | 98 | 1017.4 | |
| 20260505053636 | 7 | 0.0 | 0.0 | 0.00 | 0.00 | 0.00 | 98 | 1017.3 | |
| 20260505052739 | 7 | 0.0 | 0.0 | 0.00 | 0.00 | 0.00 | 98 | 1017.4 | |
| 20260505051735 | 7 | 0.0 | 0.0 | 0.00 | 0.00 | 0.00 | 98 | 1017.2 | |
| 20260505050720 | 7 | 0.0 | 0.0 | 0.00 | 0.00 | 0.00 | 98 | 1017.4 | |
| 20260505041606 | 7 | 312 | 0.0 | 1.6 | 0.00 | 0.00 | 0.00 | 98 | 1017.3 |
| 20260505040522 | 7 | 289 | 0.0 | 1.6 | 0.00 | 0.00 | 0.00 | 98 | 1017.2 |
| 20260505035647 | 6 | 0.0 | 0.0 | 0.00 | 0.00 | 0.00 | 98 | 1017.1 | |
| 20260505034523 | 6 | 0.0 | 0.0 | 0.00 | 0.00 | 0.00 | 97 | 1017.0 | |
| 20260505033627 | 6 | 0.0 | 0.0 | 0.00 | 0.00 | 0.00 | 97 | 1016.9 | |
| 20260505032524 | 6 | 0.0 | 0.0 | 0.00 | 0.00 | 0.00 | 97 | 1016.9 | |
| 20260505031608 | 7 | 0.0 | 0.0 | 0.00 | 0.00 | 0.00 | 97 | 1017.0 | |
| 20260505030605 | 7 | 0.0 | 0.0 | 0.00 | 0.00 | 0.00 | 97 | 1016.9 | |
| 20260505025609 | 7 | 0.0 | 0.0 | 0.00 | 0.00 | 0.00 | 97 | 1017.3 | |
| 20260505024525 | 7 | 0.0 | 0.0 | 0.00 | 0.00 | 0.00 | 97 | 1017.2 | |
| 20260505023610 | 8 | 0.0 | 1.6 | 0.00 | 0.00 | 0.00 | 97 | 1017.2 | |
| 20260505022526 | 8 | 157 | 1.6 | 3.2 | 0.00 | 0.00 | 0.00 | 97 | 1017.1 |
| 20260505021631 | 8 | 136 | 1.6 | 1.6 | 0.00 | 0.00 | 0.00 | 97 | 1017.2 |
| 20260505020527 | 7 | 149 | 0.0 | 1.6 | 0.00 | 0.00 | 0.00 | 97 | 1017.3 |
| 20260505015611 | 7 | 0.0 | 1.6 | 0.00 | 0.00 | 0.00 | 97 | 1017.5 | |
| 20260505014528 | 7 | 149 | 0.0 | 1.6 | 0.00 | 0.00 | 0.00 | 97 | 1017.6 |
| 20260505013632 | 7 | 0.0 | 0.0 | 0.00 | 0.00 | 0.00 | 96 | 1017.7 | |
| 20260505012529 | 7 | 0.0 | 0.0 | 0.00 | 0.00 | 0.00 | 96 | 1017.7 | |
| 20260505011613 | 7 | 0.0 | 0.0 | 0.00 | 0.00 | 0.00 | 96 | 1017.7 | |
| 20260505010550 | 7 | 0.0 | 0.0 | 0.00 | 0.00 | 0.00 | 96 | 1017.6 | |
| 20260505005614 | 8 | 0.0 | 0.0 | 0.00 | 0.00 | 0.00 | 96 | 1017.6 | |
| 20260505004530 | 7 | 0.0 | 0.0 | 0.00 | 0.00 | 0.00 | 96 | 1017.5 | |
| 20260505003615 | 8 | 0.0 | 0.0 | 0.00 | 0.00 | 0.00 | 95 | 1017.5 | |
| 20260505002532 | 8 | 0.0 | 0.0 | 0.00 | 0.00 | 0.00 | 95 | 1017.7 | |
| 20260505001616 | 8 | 0.0 | 0.0 | 0.00 | 0.00 | 0.00 | 95 | 1017.5 | |
| 20260505000532 | 8 | 0.0 | 0.0 | 0.00 | 0.00 | 0.00 | 95 | 1017.7 | |
| 20260504235637 | 8 | 0.0 | 0.0 | 0.00 | 0.00 | 0.00 | 94 | 1018.0 | |
| 20260504234533 | 8 | 0.0 | 0.0 | 0.00 | 0.00 | 0.00 | 94 | 1018.1 | |
| 20260504233617 | 8 | 0.0 | 0.0 | 0.00 | 0.00 | 0.00 | 94 | 1018.1 | |
| 20260504232533 | 9 | 0.0 | 0.0 | 0.00 | 0.00 | 0.00 | 94 | 1018.2 | |
| 20260504231618 | 10 | 0.0 | 0.0 | 0.00 | 0.00 | 0.00 | 94 | 1018.2 | |
| 20260504230534 | 9 | 0.0 | 0.0 | 0.00 | 0.00 | 0.00 | 93 | 1018.1 | |
| 20260504225519 | 10 | 0.0 | 0.0 | 0.00 | 0.00 | 0.00 | 92 | 1018.3 | |
| 20260504224435 | 10 | 0.0 | 0.0 | 0.00 | 0.00 | 0.00 | 92 | 1018.2 | |
| 20260504223520 | 10 | 0.0 | 0.0 | 0.00 | 0.00 | 0.00 | 91 | 1018.2 | |
| 20260504222436 | 11 | 0.0 | 0.0 | 0.00 | 0.00 | 0.00 | 90 | 1018.4 | |
| 20260504221521 | 11 | 0.0 | 1.6 | 0.00 | 0.00 | 0.00 | 89 | 1018.6 | |
| 20260504220437 | 11 | 0.0 | 0.0 | 0.00 | 0.00 | 0.00 | 89 | 1018.3 | |
| 20260504215521 | 11 | 191 | 0.0 | 1.6 | 0.00 | 0.00 | 0.00 | 88 | 1018.3 |
| 20260504214438 | 11 | 191 | 1.6 | 1.6 | 0.00 | 0.00 | 0.00 | 88 | 1018.2 |
| 20260504213522 | 11 | 196 | 0.0 | 1.6 | 0.00 | 0.00 | 0.00 | 88 | 1018.1 |
| 20260504212439 | 11 | 0.0 | 1.6 | 0.00 | 0.00 | 0.00 | 88 | 1018.3 | |
| 20260504211543 | 11 | 171 | 0.0 | 1.6 | 0.00 | 0.00 | 0.00 | 89 | 1018.2 |
| 20260504210500 | 11 | 193 | 0.0 | 3.2 | 0.00 | 0.00 | 0.00 | 88 | 1018.2 |
| 20260504205525 | 12 | 173 | 1.6 | 3.2 | 0.00 | 0.00 | 0.00 | 88 | 1018.2 |
| 20260504204501 | 12 | 187 | 1.6 | 3.2 | 0.00 | 0.00 | 0.00 | 88 | 1018.2 |
| 20260504203525 | 12 | 180 | 1.6 | 1.6 | 0.00 | 0.03 | 0.00 | 87 | 1018.3 |
| 20260504202441 | 12 | 133 | 1.6 | 3.2 | 0.00 | 0.08 | 0.00 | 86 | 1018.3 |
| 20260504201546 | 12 | 158 | 1.6 | 1.6 | 0.00 | 0.15 | 0.00 | 86 | 1018.2 |
| 20260504200502 | 12 | 0.0 | 1.6 | 0.00 | 0.30 | 0.00 | 86 | 1018.2 | |
| 20260504195527 | 12 | 0.0 | 0.0 | 0.00 | 0.36 | 0.00 | 86 | 1018.0 | |
| 20260504194443 | 12 | 193 | 0.0 | 1.6 | 0.00 | 0.36 | 0.00 | 85 | 1018.1 |
| 20260504193527 | 12 | 193 | 0.0 | 1.6 | 0.00 | 0.36 | 0.00 | 86 | 1018.1 |
| 20260504192504 | 12 | 0.0 | 0.0 | 0.00 | 0.36 | 0.00 | 85 | 1017.9 | |
| 20260504191528 | 12 | 193 | 1.6 | 1.6 | 0.00 | 0.36 | 0.00 | 85 | 1018.0 |
| 20260504190444 | 12 | 193 | 0.0 | 1.6 | 0.00 | 0.36 | 0.00 | 84 | 1017.6 |
| 20260504185529 | 12 | 0.0 | 0.0 | 0.00 | 0.36 | 0.00 | 84 | 1017.7 | |
| 20260504184445 | 13 | 0.0 | 0.0 | 0.00 | 0.36 | 0.00 | 84 | 1017.6 | |
| 20260504183530 | 13 | 0.0 | 0.0 | 0.00 | 0.36 | 0.00 | 84 | 1017.7 | |
| 20260504182446 | 13 | 195 | 1.6 | 1.6 | 0.00 | 0.36 | 0.00 | 85 | 1017.6 |
| 20260504181551 | 13 | 0.0 | 0.0 | 0.00 | 0.36 | 0.00 | 84 | 1017.5 | |
| 20260504180447 | 13 | 161 | 1.6 | 1.6 | 0.00 | 0.36 | 0.00 | 84 | 1017.2 |
| 20260504175532 | 13 | 0.0 | 1.6 | 0.00 | 0.36 | 0.00 | 84 | 1017.2 | |
| 20260504174448 | 13 | 153 | 0.0 | 1.6 | 0.00 | 0.36 | 0.00 | 84 | 1017.3 |
| 20260504173406 | 13 | 0.0 | 1.6 | 0.00 | 0.36 | 0.00 | 85 | 1017.3 | |
| 20260504172333 | 13 | 0.0 | 0.0 | 0.00 | 0.36 | 0.00 | 85 | 1017.2 |